Starlink 30070

operational
NORAD ID: 56707 Int'l Des: 2023-067 Owner: SPXS Country: US Constellation: starlink
LEOCIRCULAR

Über Starlink 30070

Beschreibung wird geladen...

Live-Position

3D-Globus wird geladen...

Nächste Überflüge

Höhenverlauf

Altitude vs Time

uPlot chart will show altitude changes over time

Zweizeiliger Elementsatz

1 56707U 23067V 25258.40768595 .00000429 00000-0 46847-4 0 9997
2 56707 43.0044 146.8458 0001105 264.9202 95.1514 15.02537257129295
Epoch: 15. Sept. 2025 • Age: 24 hours

Aktueller Status

Höhe 570.8 km
Geschwindigkeit 7.58 km/s
Subsatellitenpunkt -41.03°S, 63.06°W
Startdatum 19. Mai 2023
Alter 2.3 years
Typ internet

Technische Details

Klassifizierung Payload
Masse 730.00 kg
Trockenmasse 700.00 kg
Gesamtmasse 730.00 kg
Länge 0.30 m
Durchmesser 4.10 m
Spannweite 29.00 m
Form Box + pan
Hersteller SPXS
Bus-Typ Starlink V2M
Phasenstatus In Orbit
Besitzer/Staat SPXS/US

Große Konstellationen

Loading constellations...